Tracking 19909 objects as of 22-Oct-2019
HD Live streaming from Space Station
objects crossing your sky now

IRIDIUM 33 DEB

Track IRIDIUM 33 DEB now!
10-day predictions


NORAD ID: 34350
Int'l Code: 1997-051ES
Perigee: 751.0 km
Apogee: 782.5 km
Inclination: 86.3 °
Period: 100.0 minutes
Semi major axis: 7137 km
RCS: 0.064 m2 (small)
Launch date: September 14, 1997
Source: United States (US)
Launch site: TYURATAM MISSILE AND SPACE COMPLEX (TTMTR)

Note: This is SATELLITE DEBRIS
aabbcc
Your satellite tracking list
Your tracking list is empty




NASA's NSSDC Master Catalog

Two Line Element Set (TLE):
1 34350U 97051ES  19294.92255094 +.00000311 +00000-0 +93027-4 0  9998
2 34350 086.3296 249.1395 0022123 343.8041 072.3685 14.39665425559721
Source of the keplerian elements: AFSPC